Regional Weather Roundup
Issued by NWS

Home | Current Version | Previous Version | Graphics & Text | Print | Product List | Glossary On
Versions: 1 2 3 4 5 6 7 8 9 10 11 12 13 14 15 16 17 18 19 20 21 22 23 24 25 26 27 28 29 30 31 32 33 34 35 36 37 38 39 40 41 42 43 44 45 46 47 48 49 50
000
ASUS43 KOAX 262102
RWRNE

WEATHER ROUNDUP FOR NEBRASKA
NATIONAL WEATHER SERVICE OMAHA NE
400 PM CDT MON JUN 26 2017

NOTES: SATELLITE DATA IS BEING USED TO AUGMENT CLOUD COVER ABOVE
       12000 FEET.
       "FAIR" INDICATES FEW OR NO CLOUDS BELOW 12,000 FEET WITH NO
       SIGNIFICANT WEATHER AND/OR OBSTRUCTIONS TO VISIBILITY.

  * THESE STATIONS DO NOT REPORT WEATHER SUCH AS RAIN...SNOW OR FOG.

NEZ001>004-019>022-054>056-262200-
NEBRASKA PANHANDLE

CITY           SKY/WX    TMP DP  RH WIND       PRES   REMARKS
SCOTTSBLUFF    SUNNY     83  42  23 SE9       30.14F
ALLIANCE       SUNNY     80  36  20 NE8       30.16F
CHADRON        SUNNY     80  36  20 CALM      30.13F
GORDON         FAIR      75  37  24 SE6       30.17F
KIMBALL        SUNNY     80  46  30 SW3       30.19S
SIDNEY         SUNNY     84  48  28 NE9       30.16F
$$

NEZ057>060-069>072-079>082-262200-
SOUTHWEST NEBRASKA

CITY           SKY/WX    TMP DP  RH WIND       PRES   REMARKS
NORTH PLATTE   SUNNY     81  46  29 NE16      30.14F
IMPERIAL       MOSUNNY   82  55  39 E13       30.12F
LEXINGTON      MOSUNNY   78  58  49 E12       30.13F
MCCOOK         SUNNY     81  60  48 E18       30.10F
OGALLALA       SUNNY     83  47  27 E13G22    30.14F
$$

NEZ005>010-023>029-035>040-094-262200-
NORTH CENTRAL NEBRASKA

CITY           SKY/WX    TMP DP  RH WIND       PRES   REMARKS
VALENTINE      SUNNY     80  36  20 NE13      30.17F
AINSWORTH      SUNNY     75  41  30 NE7       30.18F
BROKEN BOW     SUNNY     79  46  31 NE12      30.15F
O`NEILL        SUNNY     74  40  29 N8        30.18F
ORD            SUNNY     78  41  26 N12       30.14F
THEDFORD       SUNNY     78  42  27 E16G22    30.18F
$$

NEZ041-046>049-061>064-073>077-083>087-262200-
SOUTH CENTRAL NEBRASKA

CITY           SKY/WX    TMP DP  RH WIND       PRES   REMARKS
GRAND ISLAND   SUNNY     78  54  43 N10       30.13S
AURORA         MOSUNNY   79  51  38 NE8       30.12S
HASTINGS       MOSUNNY   77  58  51 NE8       30.12F
HEBRON         CLOUDY    76  60  56 CALM      30.09F
HOLDREGE       PTSUNNY   71  57  61 N5        30.13F
KEARNEY *      MOSUNNY   77  55  47 E9        30.13F
YORK           MOSUNNY   75  54  46 N8        30.12S
$$

NEZ011>018-030>034-042>045-262200-
NORTHEAST NEBRASKA

CITY           SKY/WX    TMP DP  RH WIND       PRES   REMARKS
NORFOLK        SUNNY     74  45  35 CALM      30.15F
ALBION         SUNNY     76  44  32 N9G18     30.16S
BLAIR          MOSUNNY   73  50  44 E8        30.13F
FREMONT        SUNNY     74  48  39 NE8       30.14F
TEKAMAH        MOSUNNY   74  46  36 NE8       30.13F
WAYNE          MOSUNNY   72  44  36 N9        30.16F
$$

NEZ050>053-065>068-078-088>093-262200-
SOUTHEAST NEBRASKA

CITY           SKY/WX    TMP DP  RH WIND       PRES   REMARKS
LINCOLN        PTSUNNY   75  60  59 E10       30.12F
OMAHA EPPLEY   MOSUNNY   77  52  41 N10       30.12F
BEATRICE       CLOUDY    74  60  61 CALM      30.11S
FALLS CITY     CLOUDY    69  57  65 VRB3      30.14F
NEBRASKA CITY  CLOUDY    71  63  75 S3        30.14F
PLATTSMOUTH    SUNNY     73  56  56 CALM      30.13F
$$

NEZ044-045-051>053-067-262200-
OMAHA AREA

CITY           SKY/WX    TMP DP  RH WIND       PRES   REMARKS
OMAHA EPPLEY   MOSUNNY   77  52  41 N10       30.12F
BLAIR          MOSUNNY   73  50  44 E8        30.13F
FREMONT        SUNNY     74  48  39 NE8       30.14F
MILLARD        MOSUNNY   77  57  50 NE6       30.12F
OFFUTT AFB     MOSUNNY   75  55  50 NE7       30.11F
PLATTSMOUTH    SUNNY     73  56  56 CALM      30.13F
WAHOO          FAIR      75  52  44 NE10G17   30.12F
$$




USA.gov is the U.S. government's official web portal to all federal, state and local government web resources and services.